Location: De Platvoet
(52.2667°N, 6.1667°E)
Time: 11:32:57
(UTC+00:00)

BlueWalker 3 - Pass Details

Date: 15 May 2026
Orbit: 447 x 456 km, 53.2° (Epoch: 6 June)

Event Time Altitude Azimuth Distance (km) Brightness Sun altitude
Exits shadow 23:04:55 11° 95° (E) 1,521 4.2 -18.4°
Drops below altitude 10° 23:05:05 10° 93° (E) 1,574 4.3 -18.4°
Sets 23:07:37 0° 75° (ENE) 2,450 5.6 -18.5°
